When you browse on this site, cookies collect data to enhance your experience and personalize the content and advertising you see.
Visit our Privacy Policy to learn more. By continuing to use the site, you agree to this use of cookies and data.
  • In United Kingdom
  • List of Countries
  • For 7 days
  • Water Temperature
  • Weather Map
  • Weather Widgets
  • user-avatar
    Login

    Hourly Weather Darmanesti

    Today, 19 September, Thursday

    Time Temperature Precipitation Wind Pressure Humidity
    00:00 +7°C° 0 mm 1 mps 721 mmHg 66%
    01:00 +6°C° 0 mm 1 mps 722 mmHg 68%
    02:00 +6°C° 0 mm 1 mps 722 mmHg 68%
    03:00 +6°C° 0 mm 1 mps 722 mmHg 69%
    04:00 +5°C° 0 mm 1 mps 722 mmHg 71%
    05:00 +5°C° 0 mm 1 mps 722 mmHg 72%
    06:00 +7°C° 0 mm 1 mps 722 mmHg 64%
    07:00 +9°C° 0 mm 1 mps 722 mmHg 56%
    08:00 +11°C° 0 mm 1 mps 722 mmHg 48%
    09:00 +13°C° 0 mm 1 mps 722 mmHg 43%
    10:00 +15°C° 0 mm 2 mps 722 mmHg 37%
    11:00 +17°C° 0 mm 2 mps 722 mmHg 31%
    12:00 +18°C° 0 mm 2 mps 722 mmHg 29%
    13:00 +19°C° 0 mm 3 mps 721 mmHg 26%
    14:00 +19°C° 0 mm 3 mps 721 mmHg 23%
    15:00 +18°C° 0 mm 3 mps 721 mmHg 26%
    16:00 +18°C° 0 mm 3 mps 721 mmHg 28%
    17:00 +17°C° 0 mm 3 mps 720 mmHg 31%
    18:00 +14°C° 0 mm 2 mps 721 mmHg 39%
    19:00 +12°C° 0 mm 2 mps 721 mmHg 48%
    20:00 +10°C° 0 mm 1 mps 721 mmHg 57%
    21:00 +9°C° 0 mm 1 mps 721 mmHg 60%
    22:00 +9°C° 0 mm 1 mps 721 mmHg 63%
    23:00 +9°C° 0 mm 1 mps 721 mmHg 66%

    Tomorrow, 20 September, Friday

    Time Temperature Precipitation Wind Pressure Humidity
    00:00 +8°C° 0 mm 1 mps 721 mmHg 72%
    01:00 +7°C° 0 mm 1 mps 721 mmHg 78%
    02:00 +6°C° 0 mm 0 mps 721 mmHg 83%
    03:00 +6°C° 0 mm 1 mps 721 mmHg 85%
    04:00 +5°C° 0 mm 1 mps 721 mmHg 87%
    05:00 +5°C° 0 mm 1 mps 721 mmHg 88%
    06:00 +6°C° 0 mm 1 mps 721 mmHg 79%
    07:00 +8°C° 0 mm 1 mps 721 mmHg 71%
    08:00 +10°C° 0 mm 1 mps 722 mmHg 62%
    09:00 +11°C° 0.2 mm 1 mps 722 mmHg 57%
    10:00 +13°C° 0.2 mm 2 mps 722 mmHg 52%
    11:00 +14°C° 0.2 mm 2 mps 722 mmHg 46%
    12:00 +14°C° 0.4 mm 2 mps 722 mmHg 46%
    13:00 +13°C° 0.4 mm 3 mps 722 mmHg 46%
    14:00 +13°C° 0.4 mm 3 mps 721 mmHg 46%
    15:00 +13°C° 0.2 mm 3 mps 721 mmHg 50%
    16:00 +13°C° 0.2 mm 2 mps 722 mmHg 54%
    17:00 +12°C° 0.2 mm 2 mps 722 mmHg 58%
    18:00 +10°C° 0.1 mm 2 mps 722 mmHg 63%
    19:00 +9°C° 0.1 mm 2 mps 723 mmHg 67%
    20:00 +8°C° 0.1 mm 1 mps 723 mmHg 72%
    21:00 +7°C° 0 mm 1 mps 723 mmHg 73%
    22:00 +7°C° 0 mm 1 mps 724 mmHg 73%
    23:00 +6°C° 0 mm 1 mps 724 mmHg 74%

    Day after tomorrow, 21 September, Saturday

    Time Temperature Precipitation Wind Pressure Humidity
    00:00 +6°C° 0 mm 1 mps 724 mmHg 75%
    01:00 +6°C° 0 mm 1 mps 724 mmHg 76%
    02:00 +6°C° 0 mm 1 mps 724 mmHg 76%
    03:00 +5°C° 0 mm 1 mps 724 mmHg 78%
    04:00 +5°C° 0 mm 1 mps 724 mmHg 79%
    05:00 +4°C° 0 mm 1 mps 725 mmHg 81%
    06:00 +6°C° 0 mm 1 mps 725 mmHg 75%
    07:00 +7°C° 0 mm 1 mps 725 mmHg 70%
    08:00 +9°C° 0 mm 1 mps 725 mmHg 64%
    09:00 +11°C° 0 mm 1 mps 725 mmHg 54%
    10:00 +13°C° 0 mm 1 mps 726 mmHg 45%
    11:00 +15°C° 0 mm 1 mps 726 mmHg 35%
    12:00 +16°C° 0 mm 1 mps 725 mmHg 33%
    13:00 +18°C° 0 mm 1 mps 725 mmHg 30%
    14:00 +19°C° 0 mm 1 mps 724 mmHg 28%
    15:00 +19°C° 0 mm 1 mps 724 mmHg 29%
    16:00 +19°C° 0 mm 1 mps 724 mmHg 30%
    17:00 +18°C° 0 mm 1 mps 723 mmHg 31%
    18:00 +15°C° 0 mm 1 mps 723 mmHg 36%
    19:00 +12°C° 0 mm 1 mps 723 mmHg 41%
    20:00 +10°C° 0 mm 1 mps 723 mmHg 47%
    21:00 +9°C° 0 mm 1 mps 723 mmHg 48%
    22:00 +9°C° 0 mm 1 mps 723 mmHg 49%
    23:00 +8°C° 0 mm 1 mps 723 mmHg 51%

    22 September, Sunday

    Time Temperature Precipitation Wind Pressure Humidity
    00:00 +8°C° 0 mm 1 mps 723 mmHg 52%
    01:00 +8°C° 0 mm 1 mps 723 mmHg 52%
    02:00 +8°C° 0 mm 1 mps 723 mmHg 53%
    03:00 +7°C° 0 mm 1 mps 722 mmHg 53%
    04:00 +7°C° 0 mm 1 mps 722 mmHg 53%
    05:00 +7°C° 0 mm 1 mps 722 mmHg 53%
    06:00 +9°C° 0 mm 1 mps 722 mmHg 49%
    07:00 +11°C° 0 mm 1 mps 722 mmHg 44%
    08:00 +13°C° 0 mm 1 mps 722 mmHg 39%
    09:00 +16°C° 0 mm 1 mps 722 mmHg 35%
    10:00 +20°C° 0 mm 1 mps 722 mmHg 30%
    11:00 +22°C° 0 mm 1 mps 723 mmHg 26%
    12:00 +23°C° 0 mm 1 mps 722 mmHg 25%
    13:00 +24°C° 0 mm 1 mps 722 mmHg 24%
    14:00 +25°C° 0 mm 1 mps 721 mmHg 23%
    15:00 +24°C° 0 mm 1 mps 721 mmHg 25%
    16:00 +23°C° 0 mm 1 mps 720 mmHg 28%
    17:00 +22°C° 0 mm 1 mps 720 mmHg 30%
    18:00 +20°C° 0 mm 1 mps 720 mmHg 35%
    19:00 +16°C° 0 mm 1 mps 720 mmHg 39%
    20:00 +13°C° 0 mm 1 mps 719 mmHg 44%
    21:00 +13°C° 0 mm 1 mps 719 mmHg 45%
    22:00 +12°C° 0 mm 1 mps 719 mmHg 46%
    23:00 +12°C° 0 mm 1 mps 719 mmHg 47%

    23 September, Monday

    Time Temperature Precipitation Wind Pressure Humidity
    00:00 +11°C° 0 mm 1 mps 719 mmHg 48%
    01:00 +11°C° 0 mm 1 mps 719 mmHg 49%
    02:00 +11°C° 0 mm 1 mps 719 mmHg 50%
    03:00 +11°C° 0 mm 1 mps 719 mmHg 50%
    04:00 +11°C° 0 mm 1 mps 718 mmHg 50%
    05:00 +11°C° 0 mm 1 mps 718 mmHg 49%
    06:00 +12°C° 0 mm 1 mps 718 mmHg 45%
    07:00 +14°C° 0 mm 1 mps 718 mmHg 42%
    08:00 +15°C° 0 mm 1 mps 718 mmHg 38%
    09:00 +17°C° 0 mm 2 mps 718 mmHg 36%
    10:00 +18°C° 0 mm 2 mps 718 mmHg 34%
    11:00 +20°C° 0 mm 2 mps 718 mmHg 32%
    12:00 +20°C° 0 mm 2 mps 717 mmHg 34%
    13:00 +20°C° 0 mm 2 mps 716 mmHg 36%
    14:00 +20°C° 0 mm 2 mps 716 mmHg 37%
    15:00 +21°C° 0 mm 1 mps 715 mmHg 38%
    16:00 +21°C° 0 mm 1 mps 715 mmHg 39%
    17:00 +21°C° 0 mm 1 mps 714 mmHg 40%
    18:00 +19°C° 0 mm 1 mps 714 mmHg 43%
    19:00 +18°C° 0 mm 1 mps 714 mmHg 46%
    20:00 +15°C° 0 mm 1 mps 714 mmHg 49%
    21:00 +15°C° 0 mm 1 mps 713 mmHg 49%
    22:00 +15°C° 0 mm 1 mps 713 mmHg 49%
    23:00 +15°C° 0 mm 1 mps 713 mmHg 49%

    24 September, Tuesday

    Time Temperature Precipitation Wind Pressure Humidity
    00:00 +15°C° 0.1 mm 1 mps 713 mmHg 55%
    01:00 +14°C° 0.1 mm 1 mps 713 mmHg 61%
    02:00 +14°C° 0.1 mm 1 mps 712 mmHg 68%
    03:00 +13°C° 0.2 mm 1 mps 712 mmHg 74%
    04:00 +13°C° 0.2 mm 1 mps 712 mmHg 79%
    05:00 +13°C° 0.2 mm 1 mps 712 mmHg 85%
    06:00 +13°C° 0 mm 1 mps 712 mmHg 85%
    07:00 +13°C° 0 mm 1 mps 712 mmHg 84%
    08:00 +14°C° 0 mm 1 mps 712 mmHg 83%
    09:00 +15°C° 0 mm 1 mps 712 mmHg 77%
    10:00 +18°C° 0 mm 1 mps 712 mmHg 72%
    11:00 +19°C° 0 mm 1 mps 713 mmHg 66%
    12:00 +20°C° 0 mm 1 mps 712 mmHg 63%
    13:00 +20°C° 0 mm 2 mps 712 mmHg 59%
    14:00 +21°C° 0 mm 2 mps 712 mmHg 55%
    15:00 +20°C° 0.1 mm 2 mps 712 mmHg 58%
    16:00 +21°C° 0.1 mm 1 mps 712 mmHg 60%
    17:00 +21°C° 0.1 mm 1 mps 712 mmHg 62%
    18:00 +19°C° 0.2 mm 1 mps 712 mmHg 70%
    19:00 +16°C° 0.2 mm 1 mps 712 mmHg 78%
    20:00 +15°C° 0.2 mm 1 mps 712 mmHg 85%
    21:00 +14°C° 0.6 mm 1 mps 713 mmHg 88%
    22:00 +14°C° 0.6 mm 1 mps 713 mmHg 91%
    23:00 +14°C° 0.6 mm 1 mps 713 mmHg 94%
    Show more